W5ZYX Weather Reports


Display with metric or nautical units.
time (UTC)temp
F
wind
direction
speed
MPH
gust
MPH
rain 1hr
in
rain 24hr
in
rain mn
in
humidity
%
barometer
mb
20221002220033 83 20 1.0 0.0 0.00 0.00 0.00 28 1018.8
20221002215525 83 360 1.0 0.0 0.00 0.00 0.00 28 1018.9
20221002215025 84 46 1.0 0.0 0.00 0.00 0.00 27 1018.9
20221002214527 84 38 1.0 0.0 0.00 0.00 0.00 26 1019.0
20221002214028 84 31 0.0 0.0 0.00 0.00 0.00 27 1019.0
20221002213525 84 60 0.0 0.0 0.00 0.00 0.00 24 1019.0
20221002213029 84 45 0.0 0.0 0.00 0.00 0.00 24 1019.0
20221002212525 85 67 0.0 0.0 0.00 0.00 0.00 24 1019.0
20221002212024 84 85 1.0 0.0 0.00 0.00 0.00 25 1018.9
20221002211524 84 62 1.0 0.0 0.00 0.00 0.00 25 1018.9
20221002211025 84 39 0.0 0.0 0.00 0.00 0.00 24 1018.9
20221002210523 84 39 0.0 0.0 0.00 0.00 0.00 25 1019.0
20221002210024 84 360 0.0 0.0 0.00 0.00 0.00 25 1018.9
20221002205523 84 3 0.0 0.0 0.00 0.00 0.00 25 1018.9
20221002205023 84 39 0.0 0.0 0.00 0.00 0.00 26 1019.0
20221002204523 84 52 2.0 0.0 0.00 0.00 0.00 24 1019.0
20221002204022 84 33 2.0 0.0 0.00 0.00 0.00 26 1019.0
20221002203522 83 16 0.0 0.0 0.00 0.00 0.00 27 1019.0
20221002203030 83 48 0.0 0.0 0.00 0.00 0.00 27 1018.9
20221002202522 83 356 2.0 0.0 0.00 0.00 0.00 26 1019.1
20221002202022 83 62 3.0 0.0 0.00 0.00 0.00 26 1019.2
20221002201524 84 133 1.0 0.0 0.00 0.00 0.00 26 1019.1
20221002201025 84 38 0.0 0.0 0.00 0.00 0.00 28 1019.2
20221002200523 83 100 1.0 0.0 0.00 0.00 0.00 29 1019.2
20221002200020 83 141 1.0 0.0 0.00 0.00 0.00 31 1019.2
20221002195520 83 43 3.0 0.0 0.00 0.00 0.00 30 1019.3
20221002195019 83 61 3.0 0.0 0.00 0.00 0.00 29 1019.4
20221002194519 83 351 1.0 0.0 0.00 0.00 0.00 28 1019.4
20221002194019 83 74 0.0 0.0 0.00 0.00 0.00 28 1019.5
20221002193518 83 351 1.0 0.0 0.00 0.00 0.00 30 1019.6
20221002193017 83 354 1.0 0.0 0.00 0.00 0.00 30 1019.6
20221002192516 83 12 2.0 0.0 0.00 0.00 0.00 31 1019.7
20221002192016 82 349 2.0 0.0 0.00 0.00 0.00 30 1019.8
20221002191519 82 42 1.0 0.0 0.00 0.00 0.00 29 1019.9
20221002191016 82 349 1.0 0.0 0.00 0.00 0.00 30 1019.9
20221002190515 82 15 0.0 0.0 0.00 0.00 0.00 31 1020.0
20221002190017 82 126 0.0 0.0 0.00 0.00 0.00 33 1020.0
20221002185514 82 119 1.0 0.0 0.00 0.00 0.00 33 1020.0
20221002185015 82 60 0.0 0.0 0.00 0.00 0.00 31 1020.1
20221002184519 82 89 1.0 0.0 0.00 0.00 0.00 32 1020.1
20221002184018 82 22 1.0 0.0 0.00 0.00 0.00 31 1020.1
20221002183514 82 27 0.0 0.0 0.00 0.00 0.00 33 1020.3
20221002183014 82 110 0.0 0.0 0.00 0.00 0.00 32 1020.3
20221002182512 81 121 1.0 0.0 0.00 0.00 0.00 33 1020.6
20221002182012 81 126 0.0 0.0 0.00 0.00 0.00 34 1020.7
20221002181513 81 294 0.0 0.0 0.00 0.00 0.00 33 1020.8
20221002181011 81 59 0.0 0.0 0.00 0.00 0.00 33 1021.0
20221002180509 80 36 0.0 0.0 0.00 0.00 0.00 35 1021.0
20221002180011 80 253 0.0 0.0 0.00 0.00 0.00 34 1021.0
20221002175508 80 354 0.0 0.0 0.00 0.00 0.00 35 1021.1
20221002175009 79 104 0.0 0.0 0.00 0.00 0.00 37 1021.2
20221002174512 79 8 0.0 0.0 0.00 0.00 0.00 37 1021.2
20221002174008 79 349 0.0 0.0 0.00 0.00 0.00 36 1021.4
20221002173507 79 86 0.0 0.0 0.00 0.00 0.00 38 1021.5
20221002173007 79 29 0.0 0.0 0.00 0.00 0.00 38 1021.5
20221002172506 79 97 1.0 0.0 0.00 0.00 0.00 35 1021.6
20221002172009 79 63 1.0 0.0 0.00 0.00 0.00 39 1021.8
20221002171504 78 131 0.0 0.0 0.00 0.00 0.00 40 1021.8
20221002171004 78 62 1.0 0.0 0.00 0.00 0.00 38 1021.9
20221002170504 78 59 1.0 0.0 0.00 0.00 0.00 38 1022.0
20221002170003 78 98 1.0 0.0 0.00 0.00 0.00 38 1022.0
20221002165504 78 81 1.0 0.0 0.00 0.00 0.00 39 1022.2
20221002165004 78 95 1.0 0.0 0.00 0.00 0.00 37 1022.2
20221002164502 77 140 0.0 0.0 0.00 0.00 0.00 39 1022.2
20221002164102 77 22 1.0 0.0 0.00 0.00 0.00 39 1022.3
20221002163600 77 91 1.0 0.0 0.00 0.00 0.00 40 1022.4
20221002162557 76 27 1.0 0.0 0.00 0.00 0.00 40 1022.4
20221002162058 76 124 1.0 0.0 0.00 0.00 0.00 41 1022.4
20221002161557 76 61 1.0 0.0 0.00 0.00 0.00 45 1022.4
20221002161056 75 99 1.0 0.0 0.00 0.00 0.00 44 1022.5
20221002160557 75 16 0.0 0.0 0.00 0.00 0.00 46 1022.5
20221002160054 74 350 1.0 0.0 0.00 0.00 0.00 46 1022.6
20221002155552 74 76 1.0 0.0 0.00 0.00 0.00 46 1022.6
20221002155052 74 48 0.0 0.0 0.00 0.00 0.00 46 1022.6
20221002154551 73 49 0.0 0.0 0.00 0.00 0.00 47 1022.7
20221002154051 73 72 1.0 0.0 0.00 0.00 0.00 50 1022.6
20221002153550 73 32 1.0 0.0 0.00 0.00 0.00 49 1022.5
20221002152549 72 82 0.0 0.0 0.00 0.00 0.00 50 1022.5
20221002152047 71 32 0.0 0.0 0.00 0.00 0.00 51 1022.5
20221002151549 71 71 1.0 0.0 0.00 0.00 0.00 52 1022.5
20221002151045 71 36 1.0 0.0 0.00 0.00 0.00 52 1022.5
20221002150544 70 31 1.0 0.0 0.00 0.00 0.00 53 1022.5
20221002150043 69 109 1.0 0.0 0.00 0.00 0.00 55 1022.5
20221002145542 69 64 1.0 0.0 0.00 0.00 0.00 55 1022.5
20221002145042 67 112 1.0 0.0 0.00 0.00 0.00 58 1022.5
20221002144539 67 29 1.0 0.0 0.00 0.00 0.00 59 1022.5
20221002144037 66 19 1.0 0.0 0.00 0.00 0.00 62 1022.5
20221002142534 63 48 0.0 0.0 0.00 0.00 0.00 63 1022.4
20221002142038 63 42 0.0 0.0 0.00 0.00 0.00 63 1022.3
20221002141536 62 21 0.0 0.0 0.00 0.00 0.00 64 1022.2
20221002141030 61 39 0.0 0.0 0.00 0.00 0.00 65 1022.2
20221002140528 60 50 0.0 0.0 0.00 0.00 0.00 66 1022.1
20221002140030 60 29 0.0 0.0 0.00 0.00 0.00 68 1022.0
20221002135526 59 50 0.0 0.0 0.00 0.00 0.00 69 1021.9
20221002135026 58 32 0.0 0.0 0.00 0.00 0.00 71 1021.9
20221002134525 57 46 1.0 0.0 0.00 0.00 0.00 71 1021.9
20221002134023 56 51 1.0 0.0 0.00 0.00 0.00 73 1021.8
20221002133523 55 44 0.0 0.0 0.00 0.00 0.00 73 1021.7
20221002132523 53 55 0.0 0.0 0.00 0.00 0.00 76 1021.5
20221002132022 52 65 0.0 0.0 0.00 0.00 0.00 77 1021.5
20221002131525 51 65 0.0 0.0 0.00 0.00 0.00 78 1021.4
20221002131022 50 112 0.0 0.0 0.00 0.00 0.00 80 1021.4
20221002130521 49 112 0.0 0.0 0.00 0.00 0.00 81 1021.4
20221002130023 49 163 0.0 0.0 0.00 0.00 0.00 81 1021.4
20221002125520 48 73 0.0 0.0 0.00 0.00 0.00 81 1021.3
20221002125020 48 62 0.0 0.0 0.00 0.00 0.00 81 1021.2
20221002124520 48 62 0.0 0.0 0.00 0.00 0.00 81 1021.2
20221002124021 47 62 0.0 0.0 0.00 0.00 0.00 81 1021.1
20221002123519 47 62 0.0 0.0 0.00 0.00 0.00 81 1021.0
20221002122519 47 62 0.0 0.0 0.00 0.00 0.00 82 1020.8
20221002122020 47 62 0.0 0.0 0.00 0.00 0.00 82 1020.8
20221002121520 47 62 0.0 0.0 0.00 0.00 0.00 81 1020.6
20221002121018 47 62 0.0 0.0 0.00 0.00 0.00 82 1020.7
20221002120516 47 62 0.0 0.0 0.00 0.00 0.00 81 1020.7
20221002120015 47 62 0.0 0.0 0.00 0.00 0.00 80 1020.6
20221002115515 47 62 0.0 0.0 0.00 0.00 0.00 80 1020.5
20221002115016 47 62 0.0 0.0 0.00 0.00 0.00 81 1020.4
20221002114513 47 62 0.0 0.0 0.00 0.00 0.00 81 1020.4
20221002114013 47 62 0.0 0.0 0.00 0.00 0.00 81 1020.4
20221002113512 47 62 0.0 0.0 0.00 0.00 0.00 81 1020.3
20221002112511 47 62 0.0 0.0 0.00 0.00 0.00 81 1020.2
20221002112011 47 62 0.0 0.0 0.00 0.00 0.00 81 1020.1
20221002111512 47 62 0.0 0.0 0.00 0.00 0.00 80 1019.9
20221002111009 47 62 0.0 0.0 0.00 0.00 0.00 79 1019.9
20221002110511 48 62 0.0 0.0 0.00 0.00 0.00 80 1019.9
20221002110008 48 62 0.0 0.0 0.00 0.00 0.00 79 1020.0
20221002105508 48 62 0.0 0.0 0.00 0.00 0.00 79 1019.9
20221002105011 48 62 0.0 0.0 0.00 0.00 0.00 79 1019.8
20221002104506 48 62 0.0 0.0 0.00 0.00 0.00 78 1019.7
20221002104006 48 62 0.0 0.0 0.00 0.00 0.00 79 1019.8
20221002103504 48 62 0.0 0.0 0.00 0.00 0.00 80 1019.7
20221002102507 48 62 0.0 0.0 0.00 0.00 0.00 77 1019.6
20221002102004 48 62 0.0 0.0 0.00 0.00 0.00 78 1019.5
20221002101505 48 62 0.0 0.0 0.00 0.00 0.00 78 1019.5
20221002101003 48 62 0.0 0.0 0.00 0.00 0.00 77 1019.5
20221002100501 49 62 0.0 0.0 0.00 0.00 0.00 77 1019.5
20221002100007 49 62 0.0 0.0 0.00 0.00 0.00 77 1019.4
20221002095501 49 62 0.0 0.0 0.00 0.00 0.00 77 1019.4
20221002095002 49 62 0.0 0.0 0.00 0.00 0.00 77 1019.3
20221002064544 53 62 0.0 0.0 0.00 0.00 0.00 70 1019.0
20221002064043 53 62 0.0 0.0 0.00 0.00 0.00 70 1019.0
20221002063543 53 62 0.0 0.0 0.00 0.00 0.00 70 1018.9
20221002062541 54 62 0.0 0.0 0.00 0.00 0.00 71 1018.8
20221002062040 54 62 0.0 0.0 0.00 0.00 0.00 70 1018.8
20221002061540 54 62 0.0 0.0 0.00 0.00 0.00 71 1018.7
20221002061039 54 62 0.0 0.0 0.00 0.00 0.00 70 1018.7
20221002060540 54 62 0.0 0.0 0.00 0.00 0.00 70 1018.7
20221002060042 55 62 0.0 0.0 0.00 0.00 0.00 69 1018.7
20221002055539 55 62 0.0 0.0 0.00 0.00 0.00 68 1018.7
20221002055035 55 62 0.0 0.0 0.00 0.00 0.00 67 1018.7
20221002054534 56 62 0.0 0.0 0.00 0.00 0.00 66 1018.7
20221002054036 56 62 0.0 0.0 0.00 0.00 0.00 67 1018.7
20221002053531 57 62 0.0 0.0 0.00 0.00 0.00 66 1018.7
20221002052532 57 62 0.0 0.0 0.00 0.00 0.00 64 1018.7
20221002052032 58 62 0.0 0.0 0.00 0.00 0.00 65 1018.8
20221002051530 58 62 0.0 0.0 0.00 0.00 0.00 65 1018.8
20221002051029 58 62 0.0 0.0 0.00 0.00 0.00 64 1018.8
20221002050528 59 62 0.0 0.0 0.00 0.00 0.00 64 1018.7
20221002050040 59 62 0.0 0.0 0.00 0.00 0.00 63 1018.7
20221002045528 59 62 0.0 0.0 0.00 0.00 0.00 63 1018.6
20221002045028 59 62 0.0 0.0 0.00 0.00 0.00 63 1018.6
20221002044526 59 62 0.0 0.0 0.00 0.00 0.00 63 1018.7
20221002044027 59 62 0.0 0.0 0.00 0.00 0.00 63 1018.7
20221002043526 59 62 0.0 0.0 0.00 0.00 0.00 63 1018.7
20221002042525 59 62 0.0 0.0 0.00 0.00 0.00 62 1018.7
20221002042025 59 62 0.0 0.0 0.00 0.00 0.00 62 1018.7
20221002041526 59 62 0.0 0.0 0.00 0.00 0.00 63 1018.7
20221002041026 60 62 0.0 0.0 0.00 0.00 0.00 63 1018.6
20221002040525 60 62 0.0 0.0 0.00 0.00 0.00 64 1018.6
20221002040025 60 62 0.0 0.0 0.00 0.00 0.00 62 1018.5
20221002035524 60 62 0.0 0.0 0.00 0.00 0.00 62 1018.5
20221002035024 60 69 0.0 0.0 0.00 0.00 0.00 62 1018.5
20221002034538 60 69 0.0 0.0 0.00 0.00 0.00 62 1018.4
20221002034026 60 69 0.0 0.0 0.00 0.00 0.00 63 1018.3
20221002033523 60 69 0.0 0.0 0.00 0.00 0.00 62 1018.3
20221002032524 61 69 0.0 0.0 0.00 0.00 0.00 61 1018.1
20221002032024 61 69 0.0 0.0 0.00 0.00 0.00 61 1018.1
20221002031530 62 69 0.0 0.0 0.00 0.00 0.00 60 1018.0
20221002031024 62 69 0.0 0.0 0.00 0.00 0.00 61 1018.0
20221002030524 62 69 0.0 0.0 0.00 0.00 0.00 61 1017.9
20221002030025 62 69 0.0 0.0 0.00 0.00 0.00 60 1017.8
20221002025524 62 69 0.0 0.0 0.00 0.00 0.00 60 1017.8
20221002025024 62 39 0.0 0.0 0.00 0.00 0.00 61 1017.7
20221002024531 62 38 0.0 0.0 0.00 0.00 0.00 59 1017.6
20221002024024 63 38 0.0 0.0 0.00 0.00 0.00 59 1017.6
20221002023526 63 38 0.0 0.0 0.00 0.00 0.00 59 1017.5
20221002022524 63 38 0.0 0.0 0.00 0.00 0.00 59 1017.4
20221002022027 63 38 0.0 0.0 0.00 0.00 0.00 57 1017.4
20221002021525 63 50 0.0 0.0 0.00 0.00 0.00 57 1017.3
20221002021023 63 31 0.0 0.0 0.00 0.00 0.00 57 1017.3
20221002020528 63 31 0.0 0.0 0.00 0.00 0.00 57 1017.2
20221002020103 63 31 0.0 0.0 0.00 0.00 0.00 56 1017.2
20221002015523 63 31 0.0 0.0 0.00 0.00 0.00 56 1017.1
20221002014056 64 31 0.0 0.0 0.00 0.00 0.00 55 1016.9
20221002013554 66 31 0.0 0.0 0.00 0.00 0.00 54 1016.8
20221002012022 67 31 0.0 0.0 0.00 0.00 0.00 53 1016.8
20221002011522 67 31 0.0 0.0 0.00 0.00 0.00 52 1016.7
20221002011024 68 31 0.0 0.0 0.00 0.00 0.00 50 1016.6
20221002010521 69 31 0.0 0.0 0.00 0.00 0.00 49 1016.7
20221002010037 70 31 0.0 0.0 0.00 0.00 0.00 47 1016.6
20221002005521 72 31 0.0 0.0 0.00 0.00 0.00 45 1016.6
20221002005021 72 31 0.0 0.0 0.00 0.00 0.00 45 1016.6
20221002004522 73 31 0.0 0.0 0.00 0.00 0.00 42 1016.5
20221002004021 74 31 0.0 0.0 0.00 0.00 0.00 42 1016.5
20221002003521 75 31 0.0 0.0 0.00 0.00 0.00 41 1016.5
20221002002526 75 31 0.0 0.0 0.00 0.00 0.00 40 1016.5
20221002002022 76 31 0.0 0.0 0.00 0.00 0.00 40 1016.4
20221002001521 76 31 0.0 0.0 0.00 0.00 0.00 39 1016.4
20221002001022 77 29 0.0 0.0 0.00 0.00 0.00 38 1016.3
20221002000524 78 29 0.0 0.0 0.00 0.00 0.00 38 1016.3
20221002000023 78 29 0.0 0.0 0.00 0.00 0.00 37 1016.2
20221001235521 79 20 0.0 0.0 0.00 0.00 0.00 36 1016.1
20221001235021 80 25 0.0 0.0 0.00 0.00 0.00 36 1016.1
20221001234524 80 31 0.0 0.0 0.00 0.00 0.00 35 1016.1
20221001234021 81 27 0.0 0.0 0.00 0.00 0.00 34 1016.0
20221001233521 81 15 0.0 0.0 0.00 0.00 0.00 33 1016.0
20221001232521 82 25 0.0 0.0 0.00 0.00 0.00 33 1015.8
20221001232022 82 23 0.0 0.0 0.00 0.00 0.00 33 1015.8
20221001231526 82 40 0.0 0.0 0.00 0.00 0.00 32 1015.8
20221001231020 82 24 0.0 0.0 0.00 0.00 0.00 32 1015.7
20221001230521 83 41 1.0 0.0 0.00 0.00 0.00 32 1015.7
20221001230020 83 17 1.0 0.0 0.00 0.00 0.00 32 1015.6
20221001225520 83 30 1.0 0.0 0.00 0.00 0.00 32 1015.7
20221001223520 84 60 0.0 0.0 0.00 0.00 0.00 31 1015.6
20221001222520 84 350 0.0 0.0 0.00 0.00 0.00 31 1015.6
20221001222020 84 331 0.0 0.0 0.00 0.00 0.00 31 1015.6
20221001221524 84 24 0.0 0.0 0.00 0.00 0.00 31 1015.6
20221001221019 84 64 0.0 0.0 0.00 0.00 0.00 30 1015.6
20221001220520 84 34 0.0 0.0 0.00 0.00 0.00 31 1015.6